Location: Chiroubles
(46.1812°N, 4.6660°E)
Time: 22:27:54
(UTC+00:00)

Explorer 7 - Pass Details

Date: 02 December 2020
Orbit: 484 x 678 km, 50.3° (Epoch: 24 January)

Event Time Altitude Azimuth Distance (km) Brightness Sun altitude
Exits shadow 04:55:48 65° 329° (NNW) 610 6.8 -21.6°
Maximum altitude 04:56:15 74° 19° (NNE) 577 6.8 -21.5°
Drops below altitude 10° 05:00:16 10° 106° (ESE) 1,769 10.6 -20.8°
Sets 05:02:25 0° 108° (ESE) 2,628 11.8 -20.5°
